www.pogodaiklimat.ru

Погода и климат >> Архив погоды >> Индия >> Harnai


ПОГОДА в Harnai

  • Прогноз погоды в Harnai
  • Монитор погоды в Harnai
  • Климат города

АРХИВ ПОГОДЫ в Harnai

Время (UTC), дата Ветер
(напр.,м/с)
 
Видим.   Явления Облачность Т
(С)
Тd
(С)
f
(%)
Тe
(С)
Тes
(С)
Комфортность P
(гПа)
Po
(гПа)
Тmin
(С)
Tmax
(С)
R
(мм)
R24
(мм)
S
(см)
03 21.06 Ю 2 4000 м {туман} 8/5 600 м
[Cu Sc Ac As]
+30.0 -20.1 3 +25 +27 комфорт 1007.1 1007.0 +28.5 3
06 21.06 штиль 0 4000 м {туман} 5/5 600 м
[Sc diur, vesp]
+31.0 -20.1 3 +26 +40 жарко 1008.1 1008.0
09 21.06 Ю 1 4000 м {туман} 8/5 600 м
[Cu Sc Ac As]
+30.0 -20.1 3 +25 +31 комфорт 1007.2 1007.0
12 21.06 СЗ 2 4000 м {туман} 8/5 600 м
[Cu Sc Ac As]
+31.0 -20.1 3 +26 +27 жарко 1006.6 1007.0 +32.0
03 22.06 Ю 2 4000 м {туман} 8/5 600 м
[Cu Sc Ac As]
+30.0 -20.1 3 +25 +27 комфорт 1008.1 1008.0 +27.0 7
06 22.06 Ю 3 4000 м {туман} 5/5 600 м
[Sc diur, vesp]
+30.6 -20.1 3 +26 +35 жарко 1008.8 1009.0
09 22.06 Ю 2 4000 м {туман} 5/5 600 м
[Sc diur, vesp]
+30.6 -20.1 3 +26 +35 жарко 1007.7 1008.0
12 22.06 Ю 2 4000 м {туман} 8/5 600 м
[Cu Sc Ac As]
+30.6 -20.1 3 +26 +27 жарко 1006.7 1007.0 +32.0
03 23.06 Ю 1 4000 м {туман} 5/5 600 м
[Sc diur, vesp]
+30.6 -20.1 3 +26 +30 жарко 1008.0 1008.0 +29.0
06 23.06 Ю 1 4000 м {туман} 6/5 600 м
[Cu Sc Ac As]
+31.0 -20.1 3 +26 +36 жарко 1008.8 1009.0
09 23.06 Ю 2 4000 м {туман} 6/5 600 м
[Cu Sc Ac As]
+32.2 -20.1 3 +27 +36 жарко 1006.9 1007.0
12 23.06 Ю 2 4000 м {туман} 6/5 600 м
[Sc diur, vesp Ac As]
+31.6 -20.1 3 +27 +28 жарко 1005.9 1006.0 +33.0
03 24.06 З 2 4000 м {туман} 8/5 600 м
[Cu Sc Ac As]
+30.2 -20.1 3 +26 +28 жарко 1005.2 1005.0 +27.8
06 24.06 З 1 4000 м {туман} 6/5 600 м
[Sc diur, vesp Ac As]
+32.0 -20.1 3 +27 +37 жарко 1005.5 1006.0
09 24.06 З 1 4000 м {туман} 6/5 600 м
[Sc diur, vesp Ac As]
+32.6 0.0 12 +29 +38 жарко 1004.5 1005.0
12 24.06 З 2 4000 м {туман} 6/5 600 м
[Cu Sc Ac As]
+32.0 -20.1 3 +27 +29 жарко 1003.5 1004.0 +33.0
03 25.06 штиль 0 4000 м {туман} 8/5 600 м
[Cu Sc Ac As]
+30.0 0.0 14 +27 +30 жарко 1002.4 1002.0 +27.3 1
06 25.06 Ю 1 4000 м {туман} 8/5 600 м
[Cu Sc Ac As]
+30.6 -20.1 3 +26 +33 жарко 1002.8 1003.0
09 25.06 ЮЗ 2 4000 м {туман} 8/5 600 м
[Cu Sc Ac As]
+31.0 +26.0 75
12 25.06 ЮЗ 2 4000 м слабая морось {туман} 10/3 300 м
[St Ac As]
+27.0 -20.1 3 +23 +24 комфорт 1001.1 1001.0 +32.5 31
03 26.06 штиль 0 4000 м слабая морось {туман} 10/4 600 м
[St Ac As]
+25.6 0.0 19 +24 +25 комфорт 1003.6 1004.0 +24.5 134
06 26.06 Ю 1 4000 м слабая морось {дождь} 10/4 600 м
[St Ac As]
+27.6 0.0 17 +25 +30 комфорт 1003.9 1004.0 11
09 26.06 СВ 2 4000 м морось {дождь} 10/4 300 м
[St As op]
+26.2 -20.1 4 +22 +25 комфорт 1004.5 1005.0 91
12 26.06 ЮЗ 2 4000 м морось {дождь} 10/4 300 м
[St Ac As]
+28.4 -20.1 3 +24 +25 комфорт 1002.9 1003.0 +28.8 110
03 27.06 ЮЗ 3 4000 м {дождь, морось} 10/5 600 м
[Cu Sc Ac As]
+29.6 -20.1 3 +25 +26 комфорт 1004.8 1005.0 +27.0 170
06 27.06 ЮЗ 3 4000 м {туман} 10/5 600 м
[Cu Sc Ac As]
+30.2 -20.1 3 +26 +28 жарко 1005.7 1006.0 2
09 27.06 ЮЗ 4 4000 м {туман} 8/5 600 м
[Cu Sc Ac As]
+30.2 -20.1 3 +26 +29 жарко 1004.6 1005.0 2
12 27.06 Ю 1 4000 м {туман} 8/5 600 м
[Cu Sc Ac As]
+30.6 -20.1 3 +26 +27 жарко 1003.8 1004.0 +31.0 2

 

Местоположение метеостанции Harnai (Maharashtra, Индия): широта 17.82 долгота 73.10 высота над уровнем моря 20 м.

В архиве по умолчанию представлена погода в Harnai за последнюю неделю. Архивные данные за месяц целиком и за предыдущие месяцы, начиная с января 2011 года, Вы можете получить, выбрав интересующий диапазон дат из раскрывающегося списка и нажав кнопку "Ввод!".

Внимание! Время в таблицах - всемирное. Для получения местного времени необходимо прибавить поправку, которая в Harnai равна 5.5 ч.

Смотрите также архив погоды в соседних городах и на ближайших метеорологических станциях:

Погода в Mahabaleshwar (Maharashtra, Индия) (62 км)
Погода в Bhira (Maharashtra, Индия) (77 км)
Погода в Alibag (Maharashtra, Индия) (93 км)
Погода в Ratnagiri (Maharashtra, Индия) (97 км)
Погода в Satara (Maharashtra, Индия) (106 км)
Погода в Pune (Maharashtra, Индия) (112 км)
Погода в Mumbai Colaba (Maharashtra, Индия) (124 км)
Погода в Mumbai (Maharashtra, Индия) (147 км)
Погода в Kolhapur (Maharashtra, Индия) (173 км)
Погода в Sangli (Maharashtra, Индия) (192 км)

Пояснения к столбцам:

Ветер - указаны скорость ветра в м/с - средняя за 10 мин, порывы в срок и между сроками (в фигурных скобках) и направление, откуда дует ветер: С - северный, СВ - северо-восточный, В - восточный, ЮВ - юго-восточный, Ю - южный, ЮЗ - юго-западный, З - западный, СЗ - северо-западный.
Видимость - горизонтальная дальность видимости в метрах или километрах. При видимости от 1 до 10 км при отсутствии осадков обычно наблюдается дымка, при ухудшении видимости до 1 км и менее - туман. В сухую погоду видимость может ухудшаться дымом, пылью или мглою.
Явления - указаны атмосферные явления, наблюдавшиеся в срок или в последний час перед сроком; фигурными скобками обозначены явления, наблюдавшиеся между сроками (за 1-3 часа до срока); квадратными скобками обозначены град или гололедные отложения с указанием их диаметра в мм.
Облачность - указаны через наклонную черту общая и нижняя облачность в баллах и высота нижней границы облаков в метрах; квадратными скобками обозначены формы облаков: Ci - перистые, Cs - перисто-слоистые, Cc - перисто-кучевые, Ac - высококучевые, As - высокослоистые, Sc - слоисто-кучевые, Ns - слоисто-дождевые, Cu - кучевые, Cb - кучево-дождевые. Подробнее классификацию облаков см. в Атласе облаков (PDF).
T - Температура воздуха - температура, измеренная на высоте 2 м над землей.
Td - Температура точки росы - температура, при понижении до которой содержащийся в воздухе водяной пар достигнет насыщения.
f - Относительная влажность воздуха - влажноcть воздуха, измеренная на высоте 2 м над землей.
Te - Эффективная температура - температура, которую ощущает одетый по сезону человек в тени. Характеристика душности погоды. При расчете учитывается влияние влажности воздуха и скорости ветра на теплоощущения человека.
Tes - Эффективная температура на солнце - температура, которую ощущает человек, с поправкой на солнечный нагрев. Характеристика знойности погоды. Зависит от высоты солнца над горизонтом, облачности и скорости ветра. Ночью, в пасмурную погоду, а также при ветре 12 м/с и более поправка равна нулю.
P - Атмосферное давление - приведенное к уровню моря атмосферное давление.
Po - Атмосферное давление - измеренное на уровне метеостанции атмосферное давление.
Tmin - Минимальная температура - минимум температуры воздуха на высоте 2 м над землей.
Tmax - Максимальная температура - максимум температуры воздуха на высоте 2 м над землей.
R - Количество осадков - Количество выпавших осадков за период времени, мм. При наведении курсора мыши на число - период времени, за который выпало указанное количество осадков.
R24 - Количество осадков - Количество выпавших осадков за 24 часа, мм.
S - Снежный покров - Высота снежного покрова, см. При наведении курсора мыши на число - состояние снежного покрова и степень покрытия местности в баллах.